FW5487 Weather Reports


Display with metric or nautical units.
time (UTC)temp
F
wind
direction
speed
MPH
gust
MPH
rain 1hr
in
rain 24hr
in
rain mn
in
humidity
%
barometer
mb
20240623174203 87 357 4.0 6.0 0.00 0.00 0.00 48 1000.0
20240623173703 87 21 5.0 7.0 0.00 0.00 0.00 47 1000.0
20240623173204 87 294 2.0 6.0 0.00 0.00 0.00 51 1000.0
20240623172704 86 8 4.0 9.0 0.00 0.00 0.00 51 1000.0
20240623171704 86 333 3.0 8.0 0.00 0.00 0.00 53 1000.0
20240623171203 86 355 5.0 8.0 0.00 0.00 0.00 53 1000.0
20240623170704 86 23 5.0 9.0 0.00 0.00 0.00 52 1000.0
20240623170203 85 336 3.0 7.0 0.00 0.00 0.00 54 1000.0
20240623165704 85 357 6.0 9.0 0.00 0.00 0.00 53 1000.0
20240623165204 86 335 3.0 8.0 0.00 0.00 0.00 52 1000.0
20240623164704 86 338 2.0 5.0 0.00 0.00 0.00 54 1000.0
20240623163203 85 36 2.0 7.0 0.00 0.00 0.00 54 1000.0
20240623162703 85 13 2.0 8.0 0.00 0.00 0.00 56 1000.0
20240623162204 85 354 1.0 5.0 0.00 0.00 0.00 55 1000.0
20240623161704 84 353 5.0 9.0 0.00 0.00 0.00 55 1000.0
20240623161204 84 48 2.0 6.0 0.00 0.00 0.00 58 1000.0
20240623155704 83 0 3.0 7.0 0.00 0.00 0.00 56 1000.0
20240623154704 83 10 3.0 8.0 0.00 0.00 0.00 60 1000.0
20240623153704 82 15 3.0 9.0 0.00 0.00 0.00 61 1000.0
20240623153204 82 345 6.0 9.0 0.00 0.00 0.00 63 1000.0
20240623152704 82 3 4.0 9.0 0.00 0.00 0.00 62 1000.0
20240623151703 82 338 5.0 8.0 0.00 0.00 0.00 64 1000.0
20240623151203 82 349 5.0 12.0 0.00 0.00 0.00 64 1000.0
20240623150704 82 20 4.0 7.0 0.00 0.00 0.00 63 1000.0
20240623145704 81 332 4.0 9.0 0.00 0.00 0.00 65 1000.0
20240623144703 79 320 7.0 12.0 0.00 0.00 0.00 68 1000.0
20240623143703 80 330 6.0 12.0 0.00 0.00 0.00 67 1000.0
20240623143204 80 328 7.0 10.0 0.00 0.00 0.00 65 1000.0
20240623142704 81 8 3.0 7.0 0.00 0.00 0.00 66 1000.0
20240623141703 80 350 5.0 8.0 0.00 0.00 0.00 69 1000.0
20240623141203 80 317 4.0 9.0 0.00 0.00 0.00 70 1000.0
20240623140704 79 349 6.0 10.0 0.00 0.00 0.00 69 1000.0
20240623135704 79 347 5.0 8.0 0.00 0.00 0.00 69 1000.0
20240623135204 79 350 4.0 12.0 0.00 0.00 0.00 70 1000.0
20240623134203 79 351 3.0 8.0 0.00 0.00 0.00 71 1000.0
20240623133704 79 358 5.0 8.0 0.00 0.00 0.00 72 1000.0
20240623132204 79 353 5.0 9.0 0.00 0.00 0.00 72 1000.0
20240623131703 79 341 5.0 12.0 0.00 0.00 0.00 71 1000.0
20240623130203 78 344 7.0 14.0 0.00 0.00 0.00 73 1000.0
20240623125704 78 358 6.0 9.0 0.00 0.00 0.00 75 1000.0
20240623125204 79 322 6.0 12.0 0.00 0.00 0.00 74 1000.0
20240623124704 79 332 3.0 10.0 0.00 0.00 0.00 74 1000.0
20240623124203 79 1 3.0 9.0 0.00 0.00 0.00 72 1000.0
20240623123704 78 351 5.0 8.0 0.00 0.00 0.00 73 1000.0
20240623122703 78 357 5.0 9.0 0.00 0.00 0.00 77 1000.0
20240623122203 78 336 3.0 9.0 0.00 0.00 0.00 78 1000.0
20240623121704 78 326 6.0 9.0 0.00 0.00 0.00 78 1000.0
20240623121204 78 329 7.0 10.0 0.00 0.00 0.00 78 1000.0
20240623120703 78 325 7.0 13.0 0.00 0.00 0.00 79 1000.0
20240623115704 78 318 7.0 12.0 0.00 0.00 0.00 78 1000.0
20240623115204 78 325 6.0 13.0 0.00 0.00 0.00 78 1000.0
20240623114704 78 327 7.0 12.0 0.00 0.00 0.00 78 1000.0
20240623114204 78 315 9.0 13.0 0.00 0.00 0.00 79 1000.0
20240623113704 79 321 8.0 14.0 0.00 0.00 0.00 78 1000.0
20240623113204 79 326 6.0 15.0 0.00 0.00 0.00 78 1000.0
20240623111704 80 314 6.0 12.0 0.00 0.00 0.00 77 1000.0
20240623111204 80 309 7.0 10.0 0.00 0.00 0.00 77 1000.0
20240623110703 80 320 4.0 9.0 0.00 0.00 0.00 77 1000.0
20240623105704 80 322 9.0 12.0 0.00 0.00 0.00 76 1000.0
20240623104205 80 327 6.0 10.0 0.00 0.00 0.00 75 1000.0
20240623102703 81 321 3.0 7.0 0.00 0.00 0.00 73 1000.0
20240623102204 81 284 2.0 7.0 0.00 0.00 0.00 73 1000.0
20240623101704 81 312 3.0 7.0 0.00 0.00 0.00 73 1000.0
20240623101204 81 297 3.0 7.0 0.00 0.00 0.00 72 1000.0
20240623100703 81 279 6.0 9.0 0.00 0.00 0.00 72 1000.0
20240623100203 81 286 5.0 8.0 0.00 0.00 0.00 71 1000.0
20240623095704 81 274 4.0 8.0 0.00 0.00 0.00 71 1000.0
20240623095203 81 286 4.0 8.0 0.00 0.00 0.00 71 1000.0
20240623094703 81 276 5.0 8.0 0.00 0.00 0.00 70 1000.0
20240623094204 81 271 3.0 10.0 0.00 0.00 0.00 70 1000.0
20240623093704 81 260 5.0 9.0 0.00 0.00 0.00 70 1000.0
20240623093204 82 271 6.0 8.0 0.00 0.00 0.00 69 1000.0
20240623092704 82 261 4.0 9.0 0.00 0.00 0.00 69 1000.0
20240623092204 82 266 6.0 9.0 0.00 0.00 0.00 68 1000.0
20240623091703 82 273 6.0 10.0 0.00 0.00 0.00 68 1000.0
20240623091204 82 264 5.0 10.0 0.00 0.00 0.00 68 1000.0
20240623090704 82 265 6.0 10.0 0.00 0.00 0.00 68 1000.0
20240623085704 82 256 5.0 9.0 0.00 0.00 0.00 68 1000.0
20240623085204 82 241 6.0 9.0 0.00 0.00 0.00 68 1000.0
20240623084703 82 262 5.0 10.0 0.00 0.00 0.00 68 1000.0
20240623083704 82 257 8.0 13.0 0.00 0.00 0.00 67 1000.0
20240623083204 82 232 6.0 12.0 0.00 0.00 0.00 67 1000.0
20240623081703 82 245 5.0 12.0 0.00 0.00 0.00 65 1000.0
20240623080704 83 262 7.0 14.0 0.00 0.00 0.00 65 1000.0
20240623080203 83 275 4.0 10.0 0.00 0.00 0.00 65 1000.0
20240623075703 83 251 7.0 15.0 0.00 0.00 0.00 64 1000.0
20240623074203 83 236 7.0 18.0 0.00 0.00 0.00 63 1000.0
20240623073703 83 224 12.0 20.0 0.00 0.00 0.00 62 1000.0
20240623073203 83 229 12.0 18.0 0.00 0.00 0.00 62 1000.0
20240623072703 84 232 9.0 20.0 0.00 0.00 0.00 62 1000.0
20240623072204 84 224 11.0 21.0 0.00 0.00 0.00 62 1000.0
20240623071703 84 236 9.0 24.0 0.00 0.00 0.00 62 1000.0
20240623071203 84 221 13.0 22.0 0.00 0.00 0.00 61 1000.0
20240623065704 84 228 9.0 14.0 0.00 0.00 0.00 61 1000.0
20240623064204 84 222 10.0 16.0 0.00 0.00 0.00 61 1000.0
20240623063203 84 226 10.0 22.0 0.00 0.00 0.00 61 1000.0
20240623062703 84 228 10.0 14.0 0.00 0.00 0.00 62 1000.0
20240623062204 83 226 11.0 17.0 0.00 0.00 0.00 62 1000.0
20240623060703 83 224 10.0 15.0 0.00 0.00 0.00 62 1000.0
20240623060204 83 228 11.0 17.0 0.00 0.00 0.00 62 1000.0
20240623055703 83 222 11.0 17.0 0.00 0.00 0.00 62 1000.0
20240623055203 83 223 9.0 15.0 0.00 0.00 0.00 62 1000.0
20240623054703 83 227 10.0 17.0 0.00 0.00 0.00 62 1000.0
20240623053704 83 216 12.0 17.0 0.00 0.00 0.00 62 1000.0
20240623053203 83 230 11.0 16.0 0.00 0.00 0.00 62 1000.0
20240623052703 83 224 9.0 15.0 0.00 0.00 0.00 62 1000.0
20240623052204 83 221 12.0 21.0 0.00 0.00 0.00 62 1000.0
20240623051704 83 220 12.0 16.0 0.00 0.00 0.00 62 1000.0
20240623051203 84 232 9.0 17.0 0.00 0.00 0.00 62 1000.0
20240623050704 84 224 12.0 18.0 0.00 0.00 0.00 61 1000.0
20240623050204 84 227 10.0 17.0 0.00 0.00 0.00 61 1000.0
20240623045704 84 221 10.0 16.0 0.00 0.00 0.00 61 1000.0
20240623045204 84 215 9.0 18.0 0.00 0.00 0.00 61 1000.0
20240623044704 84 213 13.0 20.0 0.00 0.00 0.00 61 1000.0
20240623044204 84 222 12.0 17.0 0.00 0.00 0.00 61 1000.0
20240623043704 84 213 10.0 18.0 0.00 0.00 0.00 60 1000.0
20240623043204 84 211 10.0 20.0 0.00 0.00 0.00 60 1000.0
20240623042704 84 213 13.0 20.0 0.00 0.00 0.00 60 1000.0
20240623042204 84 212 13.0 16.0 0.00 0.00 0.00 60 1000.0
20240623041704 84 216 10.0 17.0 0.00 0.00 0.00 60 1000.0
20240623041203 84 207 11.0 15.0 0.00 0.00 0.00 60 1000.0
20240623040703 84 218 10.0 17.0 0.00 0.00 0.00 60 1000.0
20240623040203 84 208 13.0 18.0 0.00 0.00 0.00 60 1000.0
20240623035703 84 201 11.0 17.0 0.00 0.00 0.00 60 1000.0
20240623034704 84 205 9.0 15.0 0.00 0.00 0.00 61 1000.0
20240623034204 84 204 10.0 16.0 0.00 0.00 0.00 61 1000.0
20240623033704 84 212 12.0 17.0 0.00 0.00 0.00 61 1000.0
20240623032704 84 211 11.0 16.0 0.00 0.00 0.00 61 1000.0
20240623032204 84 208 10.0 15.0 0.00 0.00 0.00 61 1000.0
20240623031703 84 203 7.0 12.0 0.00 0.00 0.00 62 1000.0
20240623031203 84 213 10.0 14.0 0.00 0.00 0.00 62 1000.0
20240623030703 84 197 6.0 12.0 0.00 0.00 0.00 62 1000.0
20240623030204 84 213 10.0 13.0 0.00 0.00 0.00 62 1000.0
20240623025703 84 212 9.0 13.0 0.00 0.00 0.00 62 1000.0
20240623025204 84 202 10.0 14.0 0.00 0.00 0.00 62 1000.0
20240623024703 84 205 9.0 14.0 0.00 0.00 0.00 62 1000.0
20240623023703 84 197 9.0 12.0 0.00 0.00 0.00 63 1000.0
20240623023203 84 207 8.0 10.0 0.00 0.00 0.00 63 1000.0
20240623022704 84 208 7.0 12.0 0.00 0.00 0.00 63 1000.0
20240623022204 84 199 9.0 13.0 0.00 0.00 0.00 63 1000.0
20240623021204 85 206 6.0 12.0 0.00 0.00 0.00 62 1000.0
20240623020704 85 196 7.0 13.0 0.00 0.00 0.00 61 1000.0
20240623020204 85 204 6.0 10.0 0.00 0.00 0.00 61 1000.0
20240623015704 85 198 6.0 8.0 0.00 0.00 0.00 60 1000.0
20240623015204 86 212 6.0 12.0 0.00 0.00 0.00 59 1000.0
20240623014704 86 202 7.0 10.0 0.00 0.00 0.00 59 1000.0
20240623014204 86 202 6.0 10.0 0.00 0.00 0.00 58 1000.0
20240623013704 86 212 7.0 13.0 0.00 0.00 0.00 58 1000.0
20240623013204 86 214 8.0 10.0 0.00 0.00 0.00 58 1000.0
20240623011703 87 209 9.0 12.0 0.00 0.00 0.00 56 1000.0
20240623011204 87 211 7.0 10.0 0.00 0.00 0.00 56 1000.0
20240623010704 87 216 7.0 12.0 0.00 0.00 0.00 56 1000.0
20240623010203 87 213 7.0 9.0 0.00 0.00 0.00 55 1000.0
20240623005703 88 212 7.0 10.0 0.00 0.00 0.00 55 1000.0
20240623005203 88 206 7.0 15.0 0.00 0.00 0.00 54 1000.0
20240623004704 88 214 8.0 14.0 0.00 0.00 0.00 54 1000.0
20240623004203 88 193 12.0 16.0 0.00 0.00 0.00 54 1000.0
20240623003703 88 201 9.0 15.0 0.00 0.00 0.00 54 1000.0
20240623003203 88 208 12.0 14.0 0.00 0.00 0.00 54 1000.0
20240623002703 88 198 10.0 15.0 0.00 0.00 0.00 53 1000.0
20240623002204 88 211 9.0 15.0 0.00 0.00 0.00 54 1000.0
20240623001704 89 209 9.0 14.0 0.00 0.00 0.00 53 1000.0
20240623001204 89 203 8.0 14.0 0.00 0.00 0.00 53 1000.0
20240623000204 89 211 10.0 17.0 0.00 0.00 0.00 52 1000.0
20240622235704 89 205 9.0 13.0 0.00 0.00 0.00 52 1000.0
20240622235204 89 208 9.0 16.0 0.00 0.00 0.00 52 1000.0
20240622234703 89 216 10.0 15.0 0.00 0.00 0.00 51 1000.0
20240622234203 89 216 11.0 18.0 0.00 0.00 0.00 51 1000.0
20240622233704 89 216 11.0 18.0 0.00 0.00 0.00 51 1000.0
20240622233204 89 212 12.0 18.0 0.00 0.00 0.00 51 1000.0
20240622232203 89 215 11.0 16.0 0.00 0.00 0.00 52 1000.0
20240622231703 90 211 9.0 16.0 0.00 0.00 0.00 52 1000.0
20240622231204 90 209 10.0 16.0 0.00 0.00 0.00 52 1000.0
20240622230204 90 207 12.0 20.0 0.00 0.00 0.00 52 1000.0
20240622225703 90 217 13.0 18.0 0.00 0.00 0.00 52 1000.0
20240622225203 90 221 10.0 18.0 0.00 0.00 0.00 51 1000.0
20240622224704 90 214 12.0 17.0 0.00 0.00 0.00 51 1000.0
20240622224204 89 200 13.0 21.0 0.00 0.00 0.00 51 1000.0
20240622223704 90 211 12.0 23.0 0.00 0.00 0.00 51 1000.0
20240622223203 90 203 11.0 17.0 0.00 0.00 0.00 52 1000.0
20240622222204 90 200 11.0 17.0 0.00 0.00 0.00 51 1000.0
20240622221203 90 217 12.0 18.0 0.00 0.00 0.00 50 1000.0
20240622220704 90 207 13.0 22.0 0.00 0.00 0.00 51 1000.0
20240622220204 90 215 10.0 17.0 0.00 0.00 0.00 50 1000.0
20240622215704 90 214 9.0 16.0 0.00 0.00 0.00 52 1000.0
20240622215204 89 217 13.0 17.0 0.00 0.00 0.00 51 1000.0
20240622214204 90 210 15.0 23.0 0.00 0.00 0.00 52 1000.0
20240622213704 90 206 12.0 18.0 0.00 0.00 0.00 51 1000.0
20240622213204 90 209 13.0 21.0 0.00 0.00 0.00 50 1000.0
20240622212703 90 213 14.0 22.0 0.00 0.00 0.00 51 1000.0
20240622212203 90 207 10.0 15.0 0.00 0.00 0.00 52 1000.0
20240622211703 90 203 10.0 16.0 0.00 0.00 0.00 52 1000.0
20240622210203 90 200 11.0 20.0 0.00 0.00 0.00 52 1000.0
20240622205703 89 210 15.0 23.0 0.00 0.00 0.00 51 1000.0
20240622204704 90 220 10.0 18.0 0.00 0.00 0.00 52 1000.0
20240622204203 90 211 13.0 18.0 0.00 0.00 0.00 50 1000.0
20240622203705 90 204 14.0 18.0 0.00 0.00 0.00 51 1000.0
20240622202704 90 221 14.0 20.0 0.00 0.00 0.00 52 1000.0
20240622202204 90 205 14.0 21.0 0.00 0.00 0.00 51 1000.0
20240622201704 90 227 12.0 25.0 0.00 0.00 0.00 51 1000.0
20240622201203 90 223 12.0 20.0 0.00 0.00 0.00 51 1000.0
20240622200704 90 211 13.0 18.0 0.00 0.00 0.00 49 1000.0
20240622200203 90 225 11.0 21.0 0.00 0.00 0.00 52 1000.0
20240622195704 89 213 12.0 18.0 0.00 0.00 0.00 52 1000.0
20240622195204 88 222 15.0 20.0 0.00 0.00 0.00 52 1000.0
20240622194704 89 220 12.0 20.0 0.00 0.00 0.00 52 1000.0
20240622194204 89 229 9.0 17.0 0.00 0.00 0.00 55 1000.0
20240622193704 89 214 12.0 21.0 0.00 0.00 0.00 52 1000.0
20240622193204 89 201 13.0 20.0 0.00 0.00 0.00 52 1000.0
20240622192703 89 219 11.0 15.0 0.00 0.00 0.00 54 1000.0
20240622192203 89 225 9.0 16.0 0.00 0.00 0.00 54 1000.0
20240622191704 89 226 11.0 18.0 0.00 0.00 0.00 52 1000.0
20240622191204 89 231 12.0 17.0 0.00 0.00 0.00 55 1000.0
20240622190204 88 213 13.0 22.0 0.00 0.00 0.00 52 1000.0
20240622185704 89 210 12.0 20.0 0.00 0.00 0.00 53 1000.0
20240622185203 89 221 14.0 23.0 0.00 0.00 0.00 53 1000.0
20240622183703 89 207 9.0 18.0 0.00 0.00 0.00 56 1000.0
20240622183204 88 222 13.0 22.0 0.00 0.00 0.00 55 1000.0
20240622182704 88 196 13.0 23.0 0.00 0.00 0.00 54 1000.0
20240622182204 88 214 13.0 21.0 0.00 0.00 0.00 55 1000.0
20240622181204 87 213 13.0 22.0 0.00 0.00 0.00 54 1000.0
20240622180703 87 202 12.0 21.0 0.00 0.00 0.00 54 1000.0
20240622180203 87 216 13.0 17.0 0.00 0.00 0.00 54 1000.0
20240622175704 88 211 11.0 17.0 0.00 0.00 0.00 53 1000.0
20240622175203 87 210 15.0 22.0 0.00 0.00 0.00 54 1000.0